Вернуться в каталог

UNISAT 6

АктивенЛюбительское радиоSSO
NORAD 40012·PAYLOAD·🇮🇹 Italy

Запущен Jun 19, 2014 с Dombarovsky

Loading…

Ближайшие Пролёты (ближайшие 24 часа)

TLE

СвежийSource: Space-Track

Эпоха: Sep 13, 2026, 22:32 UTC

1 40012U 14033C   26256.93908458  .00001939  00000-0  21006-3 0  9999
2 40012  97.8003  48.1761 0045646 134.6536 225.8416 14.88620703659362

Отслеживайте UNISAT 6 в реальном времени с AllMySat

Download on the App Store